KB1FFS Weather Reports


Display with metric or nautical units.
time (UTC)temp
F
wind
direction
speed
MPH
gust
MPH
rain 1hr
in
rain 24hr
in
rain mn
in
humidity
%
barometer
mb
20260506121525 54 131 4.0 5.0 0.00 0.00 0.00 79 1014.7
20260506121021 54 102 4.0 6.0 0.00 0.00 0.00 79 1014.7
20260506120519 54 75 3.0 5.0 0.00 0.00 0.00 79 1014.9
20260506120017 54 154 4.0 5.0 0.00 0.00 0.00 78 1014.4
20260506115514 55 151 3.0 6.0 0.00 0.00 0.00 77 1014.4
20260506115013 55 165 2.0 4.0 0.00 0.00 0.00 77 1014.3
20260506114509 55 139 2.0 5.0 0.00 0.00 0.00 76 1014.6
20260506114008 55 110 3.0 8.0 0.00 0.00 0.00 77 1014.2
20260506113505 55 62 3.0 5.0 0.00 0.00 0.00 75 1014.1
20260506113002 56 111 2.0 5.0 0.00 0.00 0.00 75 1014.0
20260506112459 56 157 4.0 7.0 0.00 0.00 0.00 74 1014.0
20260506111956 56 135 2.0 4.0 0.00 0.00 0.00 72 1013.6
20260506111454 56 123 2.0 6.0 0.00 0.00 0.00 72 1013.6
20260506110951 56 105 2.0 6.0 0.00 0.00 0.00 72 1013.3
20260506110449 56 125 2.0 5.0 0.00 0.00 0.00 71 1013.6
20260506105945 56 159 2.0 4.0 0.00 0.00 0.00 71 1013.5
20260506105442 57 122 2.0 4.0 0.00 0.00 0.00 71 1013.4
20260506104939 57 30 2.0 5.0 0.00 0.00 0.00 71 1013.3
20260506104437 57 142 3.0 6.0 0.00 0.00 0.00 70 1013.2
20260506103935 57 144 4.0 6.0 0.00 0.00 0.00 70 1013.3
20260506103432 57 159 1.0 6.0 0.00 0.00 0.00 70 1013.2
20260506102929 57 89 2.0 6.0 0.00 0.00 0.00 70 1013.1
20260506102427 57 157 3.0 6.0 0.00 0.00 0.00 70 1013.1
20260506101924 57 165 2.0 5.0 0.00 0.00 0.00 71 1012.9
20260506101420 57 163 3.0 6.0 0.00 0.00 0.00 71 1012.9
20260506100918 58 144 3.0 5.0 0.00 0.00 0.00 71 1012.6
20260506100416 58 189 1.0 5.0 0.00 0.00 0.00 70 1012.7
20260506095914 58 148 3.0 4.0 0.00 0.00 0.00 70 1012.5
20260506095412 58 154 3.0 4.0 0.00 0.00 0.00 70 1012.4
20260506094908 58 124 3.0 6.0 0.00 0.00 0.00 70 1012.4
20260506094407 58 144 3.0 4.0 0.00 0.00 0.00 71 1012.1
20260506093904 58 150 2.0 5.0 0.00 0.00 0.00 70 1012.4
20260506093401 58 121 2.0 4.0 0.00 0.00 0.00 70 1012.4
20260506092859 58 146 3.0 5.0 0.00 0.00 0.00 71 1012.2
20260506092357 58 140 3.0 4.0 0.00 0.00 0.00 71 1012.1
20260506091853 58 42 2.0 7.0 0.00 0.00 0.00 71 1012.2
20260506091351 58 130 0.0 4.0 0.00 0.00 0.00 71 1012.0
20260506090848 58 146 2.0 4.0 0.00 0.00 0.00 71 1012.1
20260506090346 58 88 2.0 3.0 0.00 0.00 0.00 71 1012.0
20260506085842 58 173 1.0 3.0 0.00 0.00 0.00 71 1012.1
20260506085338 58 104 0.0 4.0 0.00 0.00 0.00 71 1011.9
20260506084835 59 104 2.0 5.0 0.00 0.00 0.00 71 1011.8
20260506084332 59 142 2.0 4.0 0.00 0.00 0.00 71 1011.8
20260506083829 59 118 2.0 4.0 0.00 0.00 0.00 71 1011.9
20260506083326 59 87 2.0 4.0 0.00 0.00 0.00 72 1011.6
20260506082824 59 149 2.0 4.0 0.00 0.00 0.00 72 1011.6
20260506082320 59 149 5.0 5.0 0.00 0.00 0.00 72 1011.6
20260506081816 59 68 2.0 3.0 0.00 0.00 0.00 72 1011.8
20260506081314 60 20 3.0 3.0 0.00 0.00 0.00 72 1011.6
20260506080812 59 133 2.0 4.0 0.00 0.00 0.00 72 1011.6
20260506080308 59 148 2.0 2.0 0.00 0.00 0.00 72 1011.7
20260506073252 60 150 4.0 5.0 0.00 0.00 0.00 72 1011.4
20260506072749 60 150 4.0 5.0 0.00 0.00 0.00 72 1011.0
20260506072246 60 150 4.0 5.0 0.00 0.00 0.00 72 1011.0
20260506071744 60 150 4.0 5.0 0.00 0.00 0.00 72 1010.9
20260506071242 60 150 4.0 5.0 0.00 0.00 0.00 72 1010.7
20260506070738 60 150 4.0 5.0 0.00 0.00 0.00 72 1011.1
20260506070235 60 138 4.0 4.0 0.00 0.00 0.00 72 1011.1
20260506062212 61 133 2.0 5.0 0.00 0.00 0.00 72 1011.4
20260506061708 61 136 4.0 4.0 0.00 0.00 0.00 71 1011.1
20260506061206 61 145 3.0 4.0 0.00 0.00 0.00 72 1011.2
20260506060704 61 124 1.0 4.0 0.00 0.00 0.00 72 1011.1
20260506060201 61 104 2.0 2.0 0.00 0.00 0.00 72 1011.1
20260506051133 62 146 4.0 5.0 0.00 0.00 0.00 74 1011.4
20260506050631 62 74 5.0 5.0 0.00 0.00 0.00 73 1011.6
20260506050128 62 70 3.0 4.0 0.00 0.00 0.00 74 1011.5
20260506045121 63 60 1.0 4.0 0.00 0.00 0.00 73 1011.1
20260506044619 62 149 2.0 4.0 0.00 0.00 0.00 74 1011.2
20260506044116 64 157 1.0 3.0 0.00 0.00 0.00 73 1011.2
20260506043613 64 157 1.0 3.0 0.00 0.00 0.00 73 1011.5
20260506043111 64 157 1.0 3.0 0.00 0.00 0.00 73 1011.4
20260506042610 64 157 1.0 3.0 0.00 0.00 0.00 73 1011.2
20260506042108 64 157 1.0 3.0 0.00 0.00 0.00 73 1011.1
20260506041606 64 157 1.0 3.0 0.00 0.00 0.00 73 1011.4
20260506041102 64 157 1.0 3.0 0.00 0.00 0.00 73 1011.1
20260506040600 64 171 2.0 4.0 0.00 0.00 0.00 73 1011.1
20260506040056 64 147 3.0 5.0 0.00 0.00 0.00 72 1011.1
20260506035553 65 82 1.0 4.0 0.00 0.00 0.00 72 1010.9
20260506035050 65 188 2.0 5.0 0.00 0.00 0.00 72 1010.8
20260506034547 65 180 2.0 4.0 0.00 0.00 0.00 72 1010.7
20260506034044 65 115 2.0 5.0 0.00 0.00 0.00 72 1010.6
20260506033542 65 154 4.0 4.0 0.00 0.00 0.00 72 1010.2
20260506033038 65 131 2.0 3.0 0.00 0.00 0.00 72 1010.3
20260506032536 66 151 2.0 6.0 0.00 0.00 0.00 71 1010.1
20260506032032 66 130 2.0 3.0 0.00 0.00 0.00 70 1010.1
20260506031530 66 111 1.0 3.0 0.00 0.00 0.00 70 1010.2
20260506031027 67 141 4.0 4.0 0.00 0.00 0.00 70 1010.0
20260506030525 67 122 0.0 3.0 0.00 0.00 0.00 70 1009.9
20260506030022 67 140 3.0 4.0 0.00 0.00 0.00 69 1009.9
20260506025519 68 145 4.0 4.0 0.00 0.00 0.00 69 1009.7
20260506025015 68 158 1.0 3.0 0.00 0.00 0.00 70 1009.7
20260506024512 68 148 3.0 5.0 0.00 0.00 0.00 69 1009.5
20260506024008 69 116 1.0 4.0 0.00 0.00 0.00 69 1009.3
20260506023504 69 71 1.0 3.0 0.00 0.00 0.00 69 1009.6
20260506023002 69 118 2.0 3.0 0.00 0.00 0.00 68 1009.1
20260506022459 69 154 2.0 4.0 0.00 0.00 0.00 68 1009.2
20260506021957 69 75 1.0 3.0 0.00 0.00 0.00 68 1009.3
20260506021454 69 88 0.0 3.0 0.00 0.00 0.00 68 1008.8
20260506020951 69 135 3.0 3.0 0.00 0.00 0.00 68 1008.7
20260506020449 69 95 1.0 2.0 0.00 0.00 0.00 67 1008.5
20260506015946 69 122 1.0 3.0 0.00 0.00 0.00 67 1008.8
20260506015443 69 315 1.0 3.0 0.00 0.00 0.00 67 1008.7
20260506014940 69 78 2.0 3.0 0.00 0.00 0.00 66 1008.4
20260506014437 70 149 2.0 5.0 0.00 0.00 0.00 66 1008.3
20260506013933 70 166 2.0 4.0 0.00 0.00 0.00 65 1008.1
20260506013432 70 131 2.0 5.0 0.00 0.00 0.00 65 1008.4
20260506012927 71 149 1.0 5.0 0.00 0.00 0.00 65 1008.2
20260506012424 71 145 2.0 4.0 0.00 0.00 0.00 65 1007.6
20260506011921 71 120 2.0 4.0 0.00 0.00 0.00 65 1008.0
20260506011418 72 157 2.0 2.0 0.00 0.00 0.00 65 1008.1
20260506010915 72 156 2.0 5.0 0.00 0.00 0.00 64 1007.7
20260506010414 72 138 1.0 4.0 0.00 0.00 0.00 64 1007.2
20260506005909 73 161 2.0 4.0 0.00 0.00 0.00 63 1007.4
20260506005408 73 269 0.0 2.0 0.00 0.00 0.00 64 1007.2
20260506004903 73 160 2.0 4.0 0.00 0.00 0.00 64 1007.2
20260506004401 73 139 2.0 3.0 0.00 0.00 0.00 63 1007.4
20260506003857 73 157 2.0 3.0 0.00 0.00 0.00 63 1007.1
20260506003353 74 93 0.0 4.0 0.00 0.00 0.00 63 1006.6
20260506002850 74 140 3.0 4.0 0.00 0.00 0.00 63 1006.3
20260506002346 75 306 0.0 3.0 0.00 0.00 0.00 62 1006.7
20260506001842 75 163 2.0 5.0 0.00 0.00 0.00 62 1006.9
20260506001339 76 111 2.0 4.0 0.00 0.00 0.00 61 1006.6
20260506000836 76 326 2.0 2.0 0.00 0.00 0.00 61 1006.6
20260506000334 77 148 0.0 3.0 0.00 0.00 0.00 60 1006.5
20260505235830 77 300 0.0 3.0 0.00 0.00 0.00 59 1006.5
20260505235328 78 154 2.0 3.0 0.00 0.00 0.00 59 1006.6
20260505234824 78 74 2.0 4.0 0.00 0.00 0.00 59 1006.3
20260505234322 78 147 1.0 2.0 0.00 0.00 0.00 59 1006.5
20260505233819 79 149 2.0 5.0 0.00 0.00 0.00 58 1006.3
20260505233317 79 252 0.0 4.0 0.00 0.00 0.00 56 1006.2
20260505232814 80 222 0.0 4.0 0.00 0.00 0.00 56 1006.1
20260505232311 80 329 1.0 3.0 0.00 0.00 0.00 55 1006.1
20260505231808 80 53 0.0 5.0 0.00 0.00 0.00 55 1006.4
20260505231306 81 190 0.0 5.0 0.00 0.00 0.00 56 1006.3
20260505230804 81 240 1.0 3.0 0.00 0.00 0.00 54 1005.8
20260505230301 82 329 3.0 5.0 0.00 0.00 0.00 53 1006.1
20260505225757 83 145 1.0 3.0 0.00 0.00 0.00 53 1006.1
20260505225255 83 159 0.0 2.0 0.00 0.00 0.00 52 1005.9
20260505224749 84 34 3.0 5.0 0.00 0.00 0.00 50 1005.6
20260505224247 85 126 0.0 4.0 0.00 0.00 0.00 51 1005.5
20260505223745 85 159 0.0 3.0 0.00 0.00 0.00 51 1005.5
20260505223241 85 195 2.0 2.0 0.00 0.00 0.00 51 1005.6
20260505222737 86 263 0.0 4.0 0.00 0.00 0.00 50 1005.4
20260505222233 86 215 1.0 2.0 0.00 0.00 0.00 50 1005.3
20260505221731 87 57 0.0 2.0 0.00 0.00 0.00 49 1005.3
20260505221227 87 166 2.0 2.0 0.00 0.00 0.00 48 1005.0
20260505220724 88 281 2.0 4.0 0.00 0.00 0.00 46 1005.0
20260505220222 88 205 0.0 3.0 0.00 0.00 0.00 45 1005.0
20260505215720 88 272 1.0 3.0 0.00 0.00 0.00 42 1005.0
20260505215217 89 200 2.0 2.0 0.00 0.00 0.00 41 1004.7
20260505214715 90 241 2.0 3.0 0.00 0.00 0.00 40 1005.1
20260505214212 90 295 1.0 3.0 0.00 0.00 0.00 40 1005.2
20260505213709 91 172 2.0 2.0 0.00 0.00 0.00 40 1005.2
20260505213206 92 204 0.0 3.0 0.00 0.00 0.00 38 1005.2
20260505212702 91 155 0.0 3.0 0.00 0.00 0.00 41 1005.0
20260505212200 91 257 3.0 3.0 0.00 0.00 0.00 41 1005.0
20260505211656 92 263 2.0 4.0 0.00 0.00 0.00 39 1005.0
20260505211154 92 318 2.0 4.0 0.00 0.00 0.00 40 1005.0
20260505210650 95 353 2.0 4.0 0.00 0.00 0.00 38 1005.2
20260505210147 94 275 0.0 3.0 0.00 0.00 0.00 42 1005.0
20260505205644 94 44 0.0 3.0 0.00 0.00 0.00 42 1004.9
20260505205143 95 273 2.0 3.0 0.00 0.00 0.00 41 1005.1
20260505204639 96 334 1.0 3.0 0.00 0.00 0.00 42 1005.2
20260505204137 95 117 2.0 5.0 0.00 0.00 0.00 40 1005.3
20260505203634 95 278 1.0 4.0 0.00 0.00 0.00 42 1005.3
20260505203131 94 349 3.0 4.0 0.00 0.00 0.00 42 1005.2
20260505202626 94 273 3.0 3.0 0.00 0.00 0.00 43 1005.3
20260505202122 94 330 2.0 4.0 0.00 0.00 0.00 42 1005.3
20260505201619 94 91 2.0 5.0 0.00 0.00 0.00 41 1005.2
20260505201117 94 25 3.0 5.0 0.00 0.00 0.00 44 1005.5
20260505200615 94 269 1.0 5.0 0.00 0.00 0.00 45 1005.5
20260505200111 94 0 2.0 3.0 0.00 0.00 0.00 45 1005.5
20260505195608 93 317 2.0 4.0 0.00 0.00 0.00 47 1005.6
20260505195105 94 350 2.0 6.0 0.00 0.00 0.00 46 1005.6
20260505194602 93 307 1.0 4.0 0.00 0.00 0.00 49 1005.6
20260505194058 92 321 0.0 4.0 0.00 0.00 0.00 49 1005.8
20260505193555 91 7 3.0 5.0 0.00 0.00 0.00 47 1005.6
20260505193052 91 346 2.0 5.0 0.00 0.00 0.00 48 1005.9
20260505192551 92 10 2.0 4.0 0.00 0.00 0.00 48 1005.8
20260505192048 91 327 1.0 6.0 0.00 0.00 0.00 50 1005.9
20260505191546 91 338 3.0 5.0 0.00 0.00 0.00 50 1005.4
20260505191043 91 338 2.0 3.0 0.00 0.00 0.00 52 1005.6
20260505190538 90 22 1.0 6.0 0.00 0.00 0.00 52 1005.6
20260505190034 89 8 3.0 4.0 0.00 0.00 0.00 52 1005.6
20260505185531 88 326 2.0 2.0 0.00 0.00 0.00 56 1005.6
20260505185027 88 325 1.0 4.0 0.00 0.00 0.00 54 1005.4
20260505184524 88 355 3.0 4.0 0.00 0.00 0.00 55 1005.5
20260505184021 87 28 3.0 4.0 0.00 0.00 0.00 56 1005.4
20260505183518 86 25 2.0 2.0 0.00 0.00 0.00 58 1005.8
20260505183015 86 22 3.0 4.0 0.00 0.00 0.00 57 1005.4
20260505182512 86 10 3.0 3.0 0.00 0.00 0.00 56 1006.1
20260505182008 86 5 3.0 6.0 0.00 0.00 0.00 57 1005.9
20260505181505 86 324 2.0 4.0 0.00 0.00 0.00 57 1005.9
20260505181002 86 341 2.0 4.0 0.00 0.00 0.00 59 1005.5
20260505180458 86 354 2.0 4.0 0.00 0.00 0.00 59 1006.0
20260505175955 86 353 2.0 5.0 0.00 0.00 0.00 58 1006.0
20260505175451 87 350 1.0 4.0 0.00 0.00 0.00 59 1006.0
20260505174948 86 355 2.0 5.0 0.00 0.00 0.00 57 1006.0
20260505174445 86 64 2.0 6.0 0.00 0.00 0.00 58 1005.9
20260505173941 86 1 1.0 4.0 0.00 0.00 0.00 59 1005.9
20260505173438 86 351 2.0 4.0 0.00 0.00 0.00 60 1005.8
20260505172935 86 3 1.0 4.0 0.00 0.00 0.00 61 1006.0
20260505172433 85 41 5.0 5.0 0.00 0.00 0.00 61 1005.8
20260505171932 84 119 0.0 3.0 0.00 0.00 0.00 63 1005.8
20260505171430 84 349 2.0 4.0 0.00 0.00 0.00 62 1006.0
20260505170926 84 347 2.0 3.0 0.00 0.00 0.00 62 1005.9
20260505170423 84 42 1.0 4.0 0.00 0.00 0.00 63 1005.9
20260505165918 84 16 0.0 3.0 0.00 0.00 0.00 62 1005.9
20260505165414 83 353 2.0 4.0 0.00 0.00 0.00 63 1006.0
20260505164909 83 343 2.0 4.0 0.00 0.00 0.00 64 1006.1
20260505164407 82 153 1.0 4.0 0.00 0.00 0.00 65 1006.1
20260505163905 81 357 2.0 4.0 0.00 0.00 0.00 66 1005.9
20260505163404 81 10 4.0 4.0 0.00 0.00 0.00 66 1006.0
20260505162902 81 49 0.0 5.0 0.00 0.00 0.00 66 1005.8
20260505162357 81 10 2.0 5.0 0.00 0.00 0.00 66 1005.6
20260505161854 81 354 2.0 4.0 0.00 0.00 0.00 67 1005.9
20260505161351 81 16 2.0 4.0 0.00 0.00 0.00 67 1005.9
20260505160849 80 119 2.0 4.0 0.00 0.00 0.00 68 1005.8
20260505160347 80 349 2.0 4.0 0.00 0.00 0.00 68 1005.8
20260505153326 78 44 1.0 3.0 0.00 0.00 0.00 72 1005.8
20260505152823 78 127 2.0 3.0 0.00 0.00 0.00 72 1005.6
20260505152320 77 338 2.0 4.0 0.00 0.00 0.00 71 1005.4
20260505151820 77 339 2.0 4.0 0.00 0.00 0.00 72 1005.5
20260505151317 77 92 2.0 3.0 0.00 0.00 0.00 73 1005.4
20260505150813 77 327 2.0 6.0 0.00 0.00 0.00 72 1005.4
20260505150310 77 338 1.0 3.0 0.00 0.00 0.00 73 1005.5
20260505140235 74 29 4.0 4.0 0.00 0.00 0.00 78 1005.2
20260505130159 72 17 2.0 4.0 0.00 0.00 0.00 82 1005.0
20260505124648 71 55 3.0 4.0 0.00 0.00 0.00 83 1005.5
20260505124145 71 72 0.0 4.0 0.00 0.00 0.00 84 1005.1
20260505123641 71 116 2.0 4.0 0.00 0.00 0.00 84 1004.9
20260505123138 71 12 0.0 4.0 0.00 0.00 0.00 84 1004.9
20260505122634 71 55 1.0 3.0 0.00 0.00 0.00 84 1004.9
20260505122132 71 92 1.0 2.0 0.00 0.00 0.00 85 1004.9
20260505121628 71 115 2.0 4.0 0.00 0.00 0.00 85 1004.8